Location: ??????
(30.5519°N, 47.7720°E)
Time: 08:27:09
(UTC+00:00)

Aureole 3 Rocket - Visible Passes

Search period start: 11 May 2021 00:00
Search period end: 21 May 2021 00:00
Orbit: 399 x 1739 km, 82.5° (Epoch: 10 May)

Date Brightness Start Highest point End Pass type
(mag) Time Alt. Az. Time Alt. Az. Time Alt. Az.
11 May 5.4 16:05:53 10° SSW 16:16:10 74° W 16:25:04 10° N visible
11 May 7.6 18:00:09 10° W 18:04:19 13° WNW 18:08:17 10° NW visible
12 May 6.8 17:01:40 10° SW 17:10:07 30° WNW 17:17:37 10° NNW visible
13 May 5.7 16:06:18 10° SSW 16:16:20 60° W 16:24:50 10° N visible
14 May 7.2 17:02:58 10° SW 17:10:20 23° WNW 17:16:51 10° NNW visible
15 May 6.1 16:06:54 10° SSW 16:16:29 48° W 16:24:29 10° N visible
16 May 7.5 17:04:42 10° WSW 17:10:31 17° WNW 17:15:45 10° NW visible
17 May 6.5 16:07:42 10° SW 16:16:36 38° W 16:24:00 10° NNW visible
18 May 7.7 17:07:18 10° W 17:10:42 12° WNW 17:13:52 10° NW visible
19 May 6.9 16:08:44 10° SW 16:16:42 29° W 16:23:21 10° NNW visible
